Lancaster, PA

10:10 AM EDT on April 21, 2018 (GMT -0400)
Lancaster

Weather History for KLNS - January, 2004

Change the Weather History Date:

Sunday, January 11, 2004

  Actual Average Record
Temperature  
Mean Temperature 18 °F -  
Max Temperature 30 °F 36 °F 60 °F (2018)
Min Temperature 7 °F 20 °F -6 °F (1988)
Degree Days  
Heating Degree Days 46    
Moisture  
Dew Point 3 °F    
Average Humidity 51    
Maximum Humidity 77    
Minimum Humidity 32    
Precipitation  
Precipitation 0.00 in - - ()
Sea Level Pressure  
Sea Level Pressure 30.30 in    
Wind  
Wind Speed 4 mph (SW)    
Max Wind Speed 15 mph    
Max Gust Speed 17 mph    
Visibility 10 miles    
Events      
Averages and records for this station are not official NWS values.
T = Trace of Precipitation, MM = Missing Value Source: NWS Daily Summary

Daily Weather History Graph

Daily Weather History Graph

Search for Another Location

Airport or City:

Astronomy

Jan. 11, 2004 Rise Set
Actual Time 7:26 AM EST 4:59 PM EST
Civil Twilight 6:56 AM EST 5:29 PM EST
Nautical Twilight 6:23 AM EST 6:02 PM EST
Astronomical Twilight 5:50 AM EST 6:35 PM EST
Moon 9:07 PM EST (1/11) 10:10 AM EST (1/11)
Length of Visible Light 10h 32m
Length of Day
9h 32m
Waning Gibbous, 84% of the Moon is Illuminated
Jan 11
Waning Gibbous
Jan 14
Last Quarter
Jan 21
New
Jan 29
First Quarter
Feb 6
Full

Hourly Weather History & Observations

Time (EST) Temp. Windchill Dew Point Humidity Pressure Visibility Wind Dir Wind Speed Gust Speed Precip Events Conditions
12:53 AM 10.0 °F - -0.9 °F 61% 30.43 in 10.0 mi Calm Calm - N/A   Clear
1:53 AM 8.1 °F - -0.9 °F 67% 30.43 in 10.0 mi Calm Calm - N/A   Clear
2:53 AM 7.0 °F - -0.9 °F 70% 30.43 in 10.0 mi Calm Calm - N/A   Clear
3:53 AM 8.1 °F - -0.9 °F 67% 30.43 in 10.0 mi Calm Calm - N/A   Clear
4:53 AM 7.0 °F - -0.0 °F 73% 30.41 in 10.0 mi Calm Calm - N/A   Partly Cloudy
5:53 AM 7.0 °F 0.1 °F -0.0 °F 73% 30.42 in 10.0 mi West 3.5 mph - N/A   Mostly Cloudy
6:53 AM 7.0 °F - 1.0 °F 77% 30.42 in 10.0 mi Calm Calm - N/A   Clear
7:53 AM 8.1 °F - -0.0 °F 70% 30.43 in 10.0 mi Calm Calm - N/A   Clear
8:53 AM 12.0 °F 5.9 °F 3.0 °F 67% 30.43 in 10.0 mi WSW 3.5 mph - N/A   Clear
9:53 AM 17.1 °F 7.6 °F 5.0 °F 59% 30.43 in 10.0 mi SW 6.9 mph - N/A   Clear
10:53 AM 19.9 °F 10.1 °F 3.9 °F 50% 30.41 in 10.0 mi WSW 8.1 mph - 0.00 in   Clear
11:53 AM 23.0 °F 11.7 °F 1.9 °F 40% 30.36 in 10.0 mi WSW 11.5 mph - 0.00 in   Clear
12:53 PM 25.0 °F 15.5 °F 3.0 °F 39% 30.31 in 10.0 mi WSW 9.2 mph - 0.00 in   Clear
1:53 PM 27.0 °F 18.0 °F 3.9 °F 37% 30.27 in 10.0 mi SSW 9.2 mph - 0.00 in   Overcast
2:53 PM 30.0 °F 20.0 °F 3.9 °F 33% 30.25 in 10.0 mi WSW 12.7 mph 17.3 mph 0.00 in   Clear
3:53 PM 30.0 °F 19.1 °F 3.0 °F 32% 30.22 in 10.0 mi SW 15.0 mph - 0.00 in   Clear
4:53 PM 28.9 °F 19.8 °F 3.9 °F 35% 30.22 in 10.0 mi SSW 10.4 mph - 0.00 in   Clear
5:53 PM 28.9 °F 19.2 °F 3.9 °F 35% 30.21 in 10.0 mi SSW 11.5 mph - N/A   Scattered Clouds
6:53 PM 28.0 °F 20.0 °F 3.9 °F 36% 30.19 in 10.0 mi South 8.1 mph - N/A   Overcast
7:53 PM 28.0 °F 18.6 °F 5.0 °F 38% 30.18 in 10.0 mi SSW 10.4 mph - N/A   Mostly Cloudy
8:53 PM 28.0 °F 19.3 °F 6.1 °F 39% 30.14 in 10.0 mi SSW 9.2 mph - 0.00 in   Overcast
9:53 PM 28.0 °F 20.0 °F 9.0 °F 45% 30.12 in 10.0 mi South 8.1 mph - 0.00 in   Overcast
10:53 PM 28.9 °F 22.8 °F 9.0 °F 43% 30.07 in 10.0 mi South 5.8 mph - N/A   Mostly Cloudy
11:53 PM 28.9 °F 21.9 °F 10.0 °F 45% 30.05 in 10.0 mi SSW 6.9 mph - N/A   Mostly Cloudy